Weather History for Almeria, Spain

Change the Weather History Date:

Sunday, March 2, 2014

  Actual Average Record
Temperature  
Mean Temperature 65 °F -  
Max Temperature 73 °F 63 °F 73 °F (2014)
Min Temperature 57 °F 51 °F 37 °F (2004)
Growing Degree Days 15 (Base 50)    
Moisture  
Dew Point 51 °F    
Average Humidity 60    
Maximum Humidity 94    
Minimum Humidity 28    
Precipitation  
Precipitation 0.00 in 0.03 in - ()
Sea Level Pressure  
Sea Level Pressure 29.74 in    
Wind  
Wind Speed 12 mph ()    
Max Wind Speed 32 mph    
Max Gust Speed 43 mph    
Visibility 7.9 miles    
Events      
Averages and records for this station are not official NWS values.
T = Trace of Precipitation, MM = Missing Value Source: Averaged Metar Reports

Daily Weather History Graph

Daily Weather History Graph

Search for Another Location

Airport:

Trip Planner

Search our weather history database for the weather conditions in past years. The results will help you decide how hot, cold, wet, or windy it might be!

Date:

Astronomy

Mar. 02, 2014 Rise Set
Actual Time 7:39 AM CET 7:04 PM CET
Civil Twilight 7:13 AM CET 7:30 PM CET
Nautical Twilight 6:43 AM CET 8:00 PM CET
Astronomical Twilight 6:13 AM CET 8:30 PM CET
Moon 8:04 AM CET (3/2) 8:40 PM CET (3/2)
Length of Visible Light 12h 17m
Length of Day
11h 25m
New Moon, 2% of the Moon is Illuminated
Mar 2
New Moon
Mar 8
First Quarter
Mar 16
Full
Mar 24
Last Quarter
Mar 30
New

Hourly Weather History & Observations

Time (CET) Temp. Dew Point Humidity Pressure Visibility Wind Dir Wind Speed Gust Speed Precip Events Conditions
12:00 AM 61 °F 55 °F 75% 29.65 in - SW 21.9 mph - -  
1:00 AM 61 °F 55 °F 75% 29.63 in - SW 32.2 mph - -  
2:00 AM 61 °F 55 °F 74% 29.59 in - SW 32.2 mph - -  
3:00 AM 61 °F 54 °F 73% 29.62 in - West 6.9 mph - -  
4:00 AM 59 °F 54 °F 77% 29.61 in - ESE 4.6 mph - -  
5:00 AM 57 °F 54 °F 85% 29.62 in - SSE 4.6 mph - -  
5:00 AM 57.2 °F 55.4 °F 94% 29.62 in 6.2 mi Variable 3.5 mph - N/A   Mostly Cloudy
5:30 AM 57.2 °F 53.6 °F 88% 29.62 in 6.2 mi ENE 8.1 mph 19.6 mph N/A   Partly Cloudy
6:00 AM 66 °F 46 °F 37% 29.60 in - NW 13.8 mph - -  
6:00 AM 60.8 °F 48.2 °F 63% 29.59 in 6.2 mi Variable 6.9 mph 21.9 mph N/A   Partly Cloudy
6:30 AM 66.2 °F 44.6 °F 46% 29.59 in 6.2 mi NW 19.6 mph 38.0 mph N/A   Partly Cloudy
7:00 AM 65 °F 48 °F 43% 29.66 in 16 mi SW 5.8 mph - -   Scattered Clouds
7:00 AM 64.4 °F 48.2 °F 56% 29.65 in 6.2 mi Variable 4.6 mph - N/A   Partly Cloudy
7:30 AM 62.6 °F 46.4 °F 55% 29.65 in 6.2 mi Variable 4.6 mph - N/A   Partly Cloudy
8:00 AM 64 °F 49 °F 47% 29.70 in - WSW 9.2 mph - -  
8:00 AM 62.6 °F 48.2 °F 59% 29.68 in 6.2 mi West 6.9 mph - N/A   Partly Cloudy
8:30 AM 66.2 °F 44.6 °F 46% 29.68 in 6.2 mi WNW 13.8 mph 27.6 mph N/A   Partly Cloudy
9:00 AM 69 °F 43 °F 28% 29.71 in - NW 28.8 mph - -  
9:00 AM 69.8 °F 42.8 °F 38% 29.71 in 6.2 mi NW 26.5 mph 42.6 mph N/A   Partly Cloudy
9:30 AM 69.8 °F 42.8 °F 38% 29.71 in 6.2 mi WNW 21.9 mph 33.4 mph N/A   Partly Cloudy
10:00 AM 68 °F 49 °F 39% 29.76 in 19 mi SW 12.7 mph - -   Scattered Clouds
10:00 AM 66.2 °F 50.0 °F 56% 29.74 in 6.2 mi SW 15.0 mph 29.9 mph N/A   Partly Cloudy
10:30 AM 71.6 °F 42.8 °F 35% 29.77 in 6.2 mi WNW 16.1 mph - N/A   Partly Cloudy
11:00 AM 71 °F 47 °F 31% 29.78 in - West 4.6 mph - -  
11:00 AM 69.8 °F 46.4 °F 43% 29.77 in 6.2 mi WSW 3.5 mph - N/A   Partly Cloudy
11:30 AM 66.2 °F 53.6 °F 64% 29.77 in 6.2 mi SSW 9.2 mph - N/A   Partly Cloudy
12:00 PM 65 °F 55 °F 61% 29.80 in - WSW 4.6 mph - -  
12:00 PM 62.6 °F 55.4 °F 77% 29.80 in 6.2 mi SW 5.8 mph - N/A   Partly Cloudy
12:30 PM 66.2 °F 55.4 °F 68% 29.80 in 6.2 mi SW 5.8 mph - N/A   Partly Cloudy
1:00 PM 67 °F 54 °F 54% 29.80 in 19 mi SSW 6.9 mph - -   Scattered Clouds
1:00 PM 66.2 °F 55.4 °F 68% 29.80 in 6.2 mi SSW 4.6 mph - N/A   Partly Cloudy
1:30 PM 66.2 °F 53.6 °F 64% 29.80 in 6.2 mi Variable 2.3 mph - N/A   Partly Cloudy
2:00 PM 69 °F 51 °F 42% 29.79 in - SW 11.5 mph - -  
2:00 PM 68.0 °F 50.0 °F 52% 29.80 in 6.2 mi SW 9.2 mph - N/A   Partly Cloudy
2:30 PM 66.2 °F 55.4 °F 68% 29.77 in 6.2 mi South 10.4 mph - N/A   Partly Cloudy
3:00 PM 70 °F 53 °F 44% 29.77 in - SW 8.1 mph - -  
3:00 PM 68.0 °F 53.6 °F 60% 29.77 in 6.2 mi SSW 4.6 mph - N/A   Partly Cloudy
3:30 PM 68.0 °F 53.6 °F 60% 29.77 in 6.2 mi SSW 10.4 mph - N/A   Partly Cloudy
4:00 PM 66 °F 56 °F 62% 29.77 in 19 mi SSW 10.4 mph - -   Scattered Clouds
4:00 PM 64.4 °F 55.4 °F 73% 29.74 in 6.2 mi SSW 10.4 mph - N/A   Partly Cloudy
4:30 PM 64.4 °F 55.4 °F 73% 29.74 in 6.2 mi SW 10.4 mph - N/A   Partly Cloudy
5:00 PM 66 °F 56 °F 61% 29.76 in - SSW 16.1 mph - -  
5:00 PM 66.2 °F 55.4 °F 68% 29.74 in 6.2 mi SSW 15.0 mph - N/A   Partly Cloudy
5:30 PM 69.8 °F 53.6 °F 56% 29.74 in 6.2 mi SW 11.5 mph - N/A   Partly Cloudy
6:00 PM 69 °F 46 °F 32% 29.76 in - WSW 10.4 mph - -  
6:00 PM 68.0 °F 51.8 °F 56% 29.77 in 6.2 mi SW 8.1 mph - N/A   Partly Cloudy
6:30 PM 71.6 °F 46.4 °F 41% 29.77 in 6.2 mi NW 19.6 mph 36.8 mph N/A   Partly Cloudy
7:00 PM 71 °F 47 °F 31% 29.78 in 19 mi NW 17.3 mph - -   Scattered Clouds
7:00 PM 71.6 °F 46.4 °F 41% 29.77 in 6.2 mi NW 17.3 mph - N/A   Partly Cloudy
7:30 PM 66.2 °F 48.2 °F 52% 29.80 in 6.2 mi SW 12.7 mph - N/A   Partly Cloudy
8:00 PM 62 °F 54 °F 69% 29.81 in - SSW 13.8 mph - -  
8:00 PM 62.6 °F 53.6 °F 72% 29.80 in 6.2 mi SSW 12.7 mph - N/A   Scattered Clouds
8:30 PM 60.8 °F 55.4 °F 82% 29.80 in 6.2 mi SW 11.5 mph - N/A   Partly Cloudy
9:00 PM 61 °F 55 °F 76% 29.81 in - SW 15.0 mph - -  
9:00 PM 60.8 °F 55.4 °F 82% 29.80 in 6.2 mi SW 13.8 mph - N/A   Partly Cloudy
9:30 PM 59.0 °F 55.4 °F 88% 29.80 in 6.2 mi SW 11.5 mph - N/A   Partly Cloudy
10:00 PM 61 °F 54 °F 73% 29.80 in 16 mi SW 8.1 mph - -   Scattered Clouds
10:00 PM 60.8 °F 55.4 °F 82% 29.80 in 6.2 mi WSW 8.1 mph - N/A   Partly Cloudy
10:30 PM 60.8 °F 55.4 °F 82% 29.80 in 6.2 mi West 4.6 mph - N/A   Partly Cloudy
11:00 PM 60 °F 54 °F 74% 29.80 in - SW 1.2 mph - -